Weather History for Boerne Stage Field, TX

Change the Weather History Date:

Monday, August 19, 2013

  Actual Average (KSAT) Record (KSAT)
Temperature  
Mean Temperature 76 °F 86 °F  
Max Temperature 91 °F 96 °F 108 °F (1986)
Min Temperature 62 °F 75 °F 67 °F (1992)
Degree Days  
Heating Degree Days 0 0  
Month to date heating degree days 0  
Since 1 June heating degree days 0  
Since 1 July heating degree days 0  
Cooling Degree Days 12 21  
Month to date cooling degree days 399  
Year to date cooling degree days 2159  
Since 1 June cooling degree days 1530  
Growing Degree Days 26 (Base 50)    
Moisture  
Dew Point 55 °F    
Average Humidity 47    
Maximum Humidity 77    
Minimum Humidity 28    
Precipitation  
Precipitation 0.00 in 0.07 in 2.36 in (2012)
Month to date precipitation 1.01  
Year to date precipitation 19.86  
Snow  
Snow 0.00 in - - ()
Month to date snowfall  
Since 1 June snowfall  
Since 1 July snowfall  
Snow Depth -    
Sea Level Pressure  
Sea Level Pressure 30.05 in    
Wind  
Wind Speed 3 mph (SE)    
Max Wind Speed 10 mph    
Max Gust Speed 16 mph    
Visibility 10 miles    
Events      
T = Trace of Precipitation, MM = Missing Value Source: NWS Daily Summary

Daily Weather History Graph

Daily Weather History Graph

Search for Another Location

Airport:

Trip Planner

Search our weather history database for the weather conditions in past years. The results will help you decide how hot, cold, wet, or windy it might be!

Date:

Astronomy

Aug. 19, 2013 Rise Set
Actual Time 7:05 AM CDT 8:11 PM CDT
Civil Twilight 6:40 AM CDT 8:35 PM CDT
Nautical Twilight 6:10 AM CDT 9:05 PM CDT
Astronomical Twilight 5:40 AM CDT 9:35 PM CDT
Moon 7:03 PM CDT (8/19) 5:28 AM CDT (8/19)
Length of Visible Light 13h 55m
Length of Day
13h 06m
Waxing Gibbous, 97% of the Moon is Illuminated
Aug 19
Waxing Gibbous
Aug 20
Full
Aug 28
Last Quarter
Sep 5
New
Sep 12
First Quarter

Hourly Weather History & Observations

Time (CDT) Temp. Heat Index Dew Point Humidity Pressure Visibility Wind Dir Wind Speed Gust Speed Precip Events Conditions
12:15 AM 75.2 °F - 57.2 °F 53% 30.05 in 10.0 mi South 5.8 mph - N/A   Clear
12:35 AM 77.0 °F - 57.2 °F 50% 30.05 in 10.0 mi Calm Calm - N/A   Clear
12:55 AM 71.6 °F - 57.2 °F 60% 30.05 in 10.0 mi Calm Calm - N/A   Clear
1:15 AM 71.6 °F - 55.4 °F 57% 30.05 in 10.0 mi Calm Calm - N/A   Clear
1:35 AM 69.8 °F - 55.4 °F 60% 30.05 in 10.0 mi Calm Calm - N/A   Clear
1:55 AM 69.8 °F - 55.4 °F 60% 30.05 in 10.0 mi Calm Calm - N/A   Clear
2:15 AM 69.8 °F - 57.2 °F 64% 30.05 in 10.0 mi South 3.5 mph - N/A   Clear
2:35 AM 71.6 °F - 59.0 °F 64% 30.05 in 10.0 mi Calm Calm - N/A   Clear
2:55 AM 69.8 °F - 59.0 °F 68% 30.05 in 10.0 mi South 3.5 mph - N/A   Clear
3:15 AM 71.6 °F - 59.0 °F 64% 30.05 in 10.0 mi South 3.5 mph - N/A   Clear
3:35 AM 69.8 °F - 59.0 °F 68% 30.04 in 10.0 mi South 3.5 mph - N/A   Clear
3:55 AM 71.6 °F - 59.0 °F 64% 30.05 in 10.0 mi Calm Calm - N/A   Clear
4:15 AM 68.0 °F - 57.2 °F 68% 30.05 in 10.0 mi Calm Calm - N/A   Clear
4:35 AM 68.0 °F - 57.2 °F 68% 30.05 in 10.0 mi Calm Calm - N/A   Clear
4:55 AM 64.4 °F - 57.2 °F 77% 30.05 in 10.0 mi Calm Calm - N/A   Clear
5:15 AM 66.2 °F - 57.2 °F 73% 30.05 in 10.0 mi Calm Calm - N/A   Clear
5:35 AM 64.4 °F - 57.2 °F 77% 30.05 in 10.0 mi Calm Calm - N/A   Clear
5:55 AM 64.4 °F - 55.4 °F 73% 30.05 in 10.0 mi Calm Calm - N/A   Clear
6:15 AM 64.4 °F - 55.4 °F 73% 30.05 in 10.0 mi Calm Calm - N/A   Clear
6:35 AM 64.4 °F - 55.4 °F 73% 30.06 in 10.0 mi Calm Calm - N/A   Clear
6:55 AM 62.6 °F - 55.4 °F 77% 30.07 in 10.0 mi Calm Calm - N/A   Clear
7:15 AM 62.6 °F - 55.4 °F 77% 30.07 in 10.0 mi Calm Calm - N/A   Mostly Cloudy
7:35 AM 64.4 °F - 55.4 °F 73% 30.07 in 10.0 mi Calm Calm - N/A   Mostly Cloudy
7:55 AM 66.2 °F - 57.2 °F 73% 30.08 in 10.0 mi Calm Calm - N/A   Scattered Clouds
8:15 AM 69.8 °F - 57.2 °F 64% 30.08 in 10.0 mi Calm Calm - N/A   Scattered Clouds
8:35 AM 71.6 °F - 59.0 °F 64% 30.09 in 10.0 mi Calm Calm - N/A   Overcast
8:55 AM 73.4 °F - 59.0 °F 61% 30.09 in 10.0 mi Calm Calm - N/A   Mostly Cloudy
9:15 AM 77.0 °F - 59.0 °F 54% 30.10 in 10.0 mi Calm Calm - N/A   Scattered Clouds
9:35 AM 80.6 °F 81.1 °F 59.0 °F 48% 30.10 in 10.0 mi SSE 5.8 mph - N/A   Mostly Cloudy
9:55 AM 80.6 °F 80.5 °F 55.4 °F 42% 30.11 in 10.0 mi SSE 6.9 mph - N/A   Overcast
10:15 AM 82.4 °F 81.4 °F 53.6 °F 37% 30.11 in 10.0 mi SSE 10.4 mph - N/A   Mostly Cloudy
10:35 AM 82.4 °F 81.7 °F 55.4 °F 39% 30.12 in 10.0 mi ESE 6.9 mph - N/A   Scattered Clouds
10:55 AM 86.0 °F 84.2 °F 53.6 °F 33% 30.12 in 10.0 mi SSE 6.9 mph - N/A   Scattered Clouds
11:15 AM 86.0 °F 84.2 °F 53.6 °F 33% 30.11 in 10.0 mi South 9.2 mph 16.1 mph N/A   Clear
11:35 AM 86.0 °F 84.2 °F 53.6 °F 33% 30.12 in 10.0 mi ESE 8.1 mph - N/A   Clear
11:55 AM 87.8 °F 85.7 °F 53.6 °F 31% 30.11 in 10.0 mi SE 6.9 mph 16.1 mph N/A   Clear
12:15 PM 87.8 °F 85.7 °F 53.6 °F 31% 30.11 in 10.0 mi SSE 9.2 mph - N/A   Clear
12:35 PM 87.8 °F 85.7 °F 53.6 °F 31% 30.10 in 10.0 mi East 5.8 mph - N/A   Scattered Clouds
12:55 PM 89.6 °F 87.3 °F 53.6 °F 29% 30.09 in 10.0 mi South 8.1 mph - N/A   Scattered Clouds
1:15 PM 87.8 °F 85.7 °F 53.6 °F 31% 30.09 in 10.0 mi South 10.4 mph - N/A   Scattered Clouds
1:35 PM 87.8 °F 85.7 °F 53.6 °F 31% 30.08 in 10.0 mi South 8.1 mph - N/A   Scattered Clouds
1:55 PM 89.6 °F 87.3 °F 53.6 °F 29% 30.07 in 10.0 mi Calm Calm - N/A   Scattered Clouds
2:15 PM 89.6 °F 87.3 °F 53.6 °F 29% 30.07 in 10.0 mi Calm Calm - N/A   Scattered Clouds
2:35 PM 91.4 °F 89.1 °F 53.6 °F 28% 30.06 in 10.0 mi SSE 6.9 mph - N/A   Mostly Cloudy
2:55 PM 89.6 °F 87.3 °F 53.6 °F 29% 30.05 in 10.0 mi SE 8.1 mph - N/A   Mostly Cloudy
3:15 PM 87.8 °F 85.7 °F 53.6 °F 31% 30.05 in 10.0 mi SSE 8.1 mph - N/A   Overcast
3:35 PM 89.6 °F 87.3 °F 53.6 °F 29% 30.04 in 10.0 mi SSE 3.5 mph - N/A   Mostly Cloudy
3:55 PM 87.8 °F 85.7 °F 53.6 °F 31% 30.03 in 10.0 mi South 4.6 mph - N/A   Mostly Cloudy
4:15 PM 89.6 °F 87.3 °F 53.6 °F 29% 30.02 in 10.0 mi East 6.9 mph - N/A   Scattered Clouds
4:35 PM 89.6 °F 87.3 °F 53.6 °F 29% 30.01 in 10.0 mi Calm Calm - N/A   Scattered Clouds
4:55 PM 91.4 °F 89.1 °F 53.6 °F 28% 30.01 in 10.0 mi East 6.9 mph - N/A   Scattered Clouds
5:15 PM 91.4 °F 89.1 °F 53.6 °F 28% 30.00 in 10.0 mi East 5.8 mph - N/A   Scattered Clouds
5:35 PM 89.6 °F 87.3 °F 53.6 °F 29% 29.99 in 10.0 mi South 3.5 mph - N/A   Scattered Clouds
5:55 PM 91.4 °F 89.1 °F 53.6 °F 28% 29.99 in 10.0 mi ESE 6.9 mph - N/A   Scattered Clouds
6:15 PM 89.6 °F 87.3 °F 53.6 °F 29% 29.99 in 10.0 mi SE 4.6 mph - N/A   Scattered Clouds
6:35 PM 89.6 °F 87.3 °F 53.6 °F 29% 29.99 in 10.0 mi East 5.8 mph - N/A   Scattered Clouds
6:55 PM 89.6 °F 87.3 °F 53.6 °F 29% 29.98 in 10.0 mi East 5.8 mph - N/A   Clear
7:15 PM 89.6 °F 87.3 °F 53.6 °F 29% 29.97 in 10.0 mi ESE 8.1 mph - N/A   Scattered Clouds
7:35 PM 87.8 °F 85.7 °F 53.6 °F 31% 29.98 in 10.0 mi SE 5.8 mph - N/A   Clear
7:55 PM 86.0 °F 84.2 °F 53.6 °F 33% 29.98 in 10.0 mi SE 4.6 mph - N/A   Clear
8:15 PM 84.2 °F 82.8 °F 53.6 °F 35% 29.98 in 10.0 mi SE 3.5 mph - N/A   Clear
8:35 PM 82.4 °F 81.4 °F 53.6 °F 37% 29.99 in 10.0 mi ESE 3.5 mph - N/A   Clear
8:55 PM 80.6 °F 80.3 °F 53.6 °F 39% 29.99 in 10.0 mi ESE 3.5 mph - N/A   Clear
9:15 PM 78.8 °F - 53.6 °F 42% 29.99 in 10.0 mi SE 4.6 mph - N/A   Clear
9:35 PM 78.8 °F - 53.6 °F 42% 29.99 in 10.0 mi Calm Calm - N/A   Clear
9:55 PM 75.2 °F - 53.6 °F 47% 30.00 in 10.0 mi Calm Calm - N/A   Clear
10:15 PM 73.4 °F - 53.6 °F 50% 30.01 in 10.0 mi Calm Calm - N/A   Clear
10:35 PM 71.6 °F - 53.6 °F 53% 30.01 in 10.0 mi Calm Calm - N/A   Clear
10:55 PM 71.6 °F - 53.6 °F 53% 30.02 in 10.0 mi Calm Calm - N/A   Clear
11:15 PM 71.6 °F - 53.6 °F 53% 30.02 in 10.0 mi Calm Calm - N/A   Clear
11:35 PM 75.2 °F - 53.6 °F 47% 30.02 in 10.0 mi SSE 4.6 mph - N/A   Clear
11:55 PM 77.0 °F - 53.6 °F 44% 30.03 in 10.0 mi South 4.6 mph - N/A   Clear